| time (UTC) | temp C | wind direction | speed KPH | gust KPH | rain 1hr cm | rain 24hr cm | rain mn cm | humidity % | barometer mb |
| 20260508190004 | 26 | 113 | 3.2 | 9.7 | 0.00 | 0.00 | 0.00 | 70 | 1012.4 |
| 20260508185504 | 26 | 113 | 6.4 | 12.9 | 0.00 | 0.00 | 0.00 | 69 | 1012.5 |
| 20260508185004 | 26 | 114 | 6.4 | 16.1 | 0.00 | 0.00 | 0.00 | 69 | 1012.8 |
| 20260508184504 | 26 | 114 | 6.4 | 16.1 | 0.00 | 0.00 | 0.00 | 69 | 1012.7 |
| 20260508184004 | 26 | 113 | 3.2 | 16.1 | 0.00 | 0.00 | 0.00 | 70 | 1012.8 |
| 20260508183504 | 26 | 113 | 3.2 | 8.0 | 0.00 | 0.00 | 0.00 | 69 | 1012.7 |
| 20260508183004 | 26 | 111 | 6.4 | 12.9 | 0.00 | 0.00 | 0.00 | 70 | 1012.9 |
| 20260508182525 | 26 | 101 | 6.4 | 12.9 | 0.00 | 0.00 | 0.00 | 70 | 1012.8 |
| 20260508182004 | 25 | 101 | 6.4 | 12.9 | 0.00 | 0.00 | 0.00 | 70 | 1013.0 |
| 20260508181504 | 26 | 120 | 8.0 | 16.1 | 0.00 | 0.00 | 0.00 | 71 | 1013.0 |
| 20260508181025 | 25 | 126 | 6.4 | 16.1 | 0.00 | 0.00 | 0.00 | 71 | 1013.1 |
| 20260508180503 | 25 | 126 | 6.4 | 12.9 | 0.00 | 0.00 | 0.00 | 71 | 1013.2 |
| 20260508180004 | 25 | 130 | 8.0 | 17.7 | 0.00 | 0.00 | 0.00 | 72 | 1013.4 |
| 20260508175525 | 25 | 124 | 8.0 | 17.7 | 0.00 | 0.00 | 0.00 | 71 | 1013.4 |
| 20260508175004 | 25 | 112 | 8.0 | 17.7 | 0.00 | 0.00 | 0.00 | 71 | 1013.4 |
| 20260508174524 | 25 | 107 | 9.7 | 17.7 | 0.00 | 0.00 | 0.00 | 71 | 1013.4 |
| 20260508174025 | 25 | 117 | 9.7 | 17.7 | 0.00 | 0.00 | 0.00 | 70 | 1013.5 |
| 20260508173504 | 25 | 118 | 9.7 | 17.7 | 0.00 | 0.00 | 0.00 | 70 | 1013.5 |
| 20260508173004 | 25 | 114 | 8.0 | 17.7 | 0.00 | 0.00 | 0.00 | 70 | 1013.4 |
| 20260508172503 | 25 | 129 | 8.0 | 16.1 | 0.00 | 0.00 | 0.00 | 70 | 1013.5 |
| 20260508172004 | 25 | 133 | 6.4 | 16.1 | 0.00 | 0.00 | 0.00 | 71 | 1013.7 |
| 20260508171504 | 25 | 121 | 3.2 | 12.9 | 0.00 | 0.00 | 0.00 | 71 | 1013.7 |
| 20260508171004 | 25 | 122 | 3.2 | 8.0 | 0.00 | 0.00 | 0.00 | 71 | 1013.8 |
| 20260508170503 | 25 | 108 | 6.4 | 9.7 | 0.00 | 0.00 | 0.00 | 71 | 1013.8 |
| 20260508170004 | 25 | 87 | 6.4 | 12.9 | 0.00 | 0.00 | 0.00 | 71 | 1013.7 |
| 20260508165524 | 25 | 78 | 6.4 | 12.9 | 0.00 | 0.00 | 0.00 | 73 | 1013.6 |
| 20260508165004 | 25 | 32 | 6.4 | 9.7 | 0.00 | 0.00 | 0.00 | 72 | 1013.7 |
| 20260508164525 | 24 | 1 | 6.4 | 9.7 | 0.00 | 0.00 | 0.00 | 72 | 1013.7 |
| 20260508164004 | 24 | 4 | 6.4 | 11.3 | 0.00 | 0.00 | 0.00 | 73 | 1013.9 |
| 20260508163504 | 23 | 32 | 3.2 | 11.3 | 0.00 | 0.00 | 0.00 | 75 | 1013.9 |
| 20260508163004 | 23 | 82 | 3.2 | 9.7 | 0.00 | 0.00 | 0.00 | 75 | 1013.9 |
| 20260508162525 | 23 | 83 | 3.2 | 9.7 | 0.00 | 0.00 | 0.00 | 75 | 1014.0 |
| 20260508162004 | 22 | 85 | 3.2 | 12.9 | 0.00 | 0.00 | 0.00 | 77 | 1014.1 |
| 20260508161504 | 22 | 67 | 3.2 | 12.9 | 0.00 | 0.00 | 0.00 | 76 | 1014.2 |
| 20260508161003 | 22 | 41 | 3.2 | 9.7 | 0.00 | 0.00 | 0.00 | 76 | 1014.3 |
| 20260508160504 | 22 | 38 | 1.6 | 3.2 | 0.00 | 0.00 | 0.00 | 76 | 1014.4 |
| 20260508160004 | 22 | 38 | 1.6 | 3.2 | 0.00 | 0.00 | 0.00 | 76 | 1014.7 |
| 20260508155524 | 22 | 38 | 1.6 | 6.4 | 0.00 | 0.00 | 0.00 | 76 | 1014.8 |
| 20260508155025 | 21 | 38 | 3.2 | 6.4 | 0.00 | 0.00 | 0.00 | 76 | 1014.7 |
| 20260508154504 | 21 | 38 | 3.2 | 8.0 | 0.00 | 0.00 | 0.00 | 76 | 1014.7 |
| 20260508154003 | 21 | 38 | 3.2 | 9.7 | 0.00 | 0.00 | 0.00 | 77 | 1014.8 |
| 20260508153524 | 21 | 38 | 3.2 | 9.7 | 0.00 | 0.00 | 0.00 | 77 | 1014.9 |
| 20260508153004 | 20 | 38 | 3.2 | 8.0 | 0.00 | 0.00 | 0.00 | 77 | 1015.0 |
| 20260508152503 | 20 | 38 | 3.2 | 6.4 | 0.00 | 0.00 | 0.00 | 78 | 1015.0 |
| 20260508152025 | 20 | 38 | 3.2 | 8.0 | 0.00 | 0.00 | 0.00 | 79 | 1015.1 |
| 20260508151503 | 20 | 38 | 1.6 | 8.0 | 0.00 | 0.00 | 0.00 | 79 | 1015.1 |
| 20260508151004 | 19 | 38 | 1.6 | 8.0 | 0.00 | 0.00 | 0.00 | 78 | 1015.2 |
| 20260508150503 | 19 | 38 | 1.6 | 8.0 | 0.00 | 0.00 | 0.00 | 79 | 1015.4 |
| 20260508150004 | 19 | 38 | 3.2 | 8.0 | 0.00 | 0.00 | 0.00 | 78 | 1015.4 |
| 20260508145503 | 18 | 37 | 3.2 | 9.7 | 0.00 | 0.00 | 0.00 | 79 | 1015.4 |
| 20260508145024 | 18 | 35 | 3.2 | 9.7 | 0.00 | 0.00 | 0.00 | 80 | 1015.4 |
| 20260508144504 | 18 | 34 | 3.2 | 8.0 | 0.00 | 0.00 | 0.00 | 79 | 1015.4 |
| 20260508144003 | 18 | 34 | 3.2 | 8.0 | 0.00 | 0.00 | 0.00 | 79 | 1015.3 |
| 20260508143504 | 18 | 34 | 1.6 | 6.4 | 0.00 | 0.00 | 0.00 | 79 | 1015.4 |
| 20260508143003 | 18 | 34 | 1.6 | 6.4 | 0.00 | 0.00 | 0.00 | 80 | 1015.5 |
| 20260508142504 | 18 | 34 | 3.2 | 8.0 | 0.00 | 0.00 | 0.00 | 80 | 1015.4 |
| 20260508142003 | 18 | 34 | 1.6 | 8.0 | 0.00 | 0.00 | 0.00 | 80 | 1015.3 |
| 20260508141504 | 18 | 34 | 1.6 | 8.0 | 0.00 | 0.00 | 0.00 | 81 | 1015.4 |
| 20260508141003 | 18 | 34 | 1.6 | 8.0 | 0.00 | 0.00 | 0.00 | 80 | 1015.4 |
| 20260508140503 | 17 | 34 | 3.2 | 11.3 | 0.00 | 0.00 | 0.00 | 81 | 1015.5 |
| 20260508140004 | 17 | 35 | 6.4 | 11.3 | 0.00 | 0.00 | 0.00 | 81 | 1015.4 |
| 20260508135503 | 17 | 35 | 3.2 | 12.9 | 0.00 | 0.00 | 0.00 | 81 | 1015.3 |
| 20260508135024 | 17 | 32 | 3.2 | 12.9 | 0.00 | 0.00 | 0.00 | 81 | 1015.4 |
| 20260508134503 | 17 | 30 | 6.4 | 12.9 | 0.00 | 0.00 | 0.00 | 81 | 1015.4 |
| 20260508134003 | 17 | 25 | 6.4 | 9.7 | 0.00 | 0.00 | 0.00 | 81 | 1015.5 |
| 20260508133504 | 17 | 352 | 6.4 | 9.7 | 0.00 | 0.00 | 0.00 | 81 | 1015.5 |
| 20260508133024 | 17 | 324 | 6.4 | 11.3 | 0.00 | 0.00 | 0.00 | 81 | 1015.5 |
| 20260508132524 | 17 | 319 | 3.2 | 11.3 | 0.00 | 0.00 | 0.00 | 81 | 1015.5 |
| 20260508132004 | 17 | 318 | 3.2 | 11.3 | 0.00 | 0.00 | 0.00 | 81 | 1015.6 |
| 20260508131524 | 17 | 318 | 1.6 | 11.3 | 0.00 | 0.00 | 0.00 | 82 | 1015.7 |
| 20260508131003 | 17 | 317 | 1.6 | 9.7 | 0.00 | 0.00 | 0.00 | 82 | 1015.6 |
| 20260508130503 | 17 | 317 | 3.2 | 9.7 | 0.00 | 0.00 | 0.00 | 82 | 1015.5 |
| 20260508130003 | 17 | 317 | 3.2 | 9.7 | 0.00 | 0.00 | 0.00 | 82 | 1015.3 |
| 20260508125525 | 17 | 319 | 3.2 | 11.3 | 0.00 | 0.00 | 0.00 | 81 | 1015.3 |
| 20260508125003 | 17 | 332 | 6.4 | 11.3 | 0.00 | 0.00 | 0.00 | 81 | 1015.5 |
| 20260508124504 | 17 | 338 | 8.0 | 11.3 | 0.00 | 0.00 | 0.00 | 81 | 1015.5 |
| 20260508124003 | 17 | 343 | 6.4 | 11.3 | 0.00 | 0.00 | 0.00 | 81 | 1015.5 |
| 20260508123503 | 17 | 349 | 6.4 | 11.3 | 0.00 | 0.00 | 0.00 | 81 | 1015.7 |
| 20260508123003 | 17 | 349 | 6.4 | 11.3 | 0.00 | 0.00 | 0.00 | 81 | 1015.6 |
| 20260508122503 | 17 | 348 | 6.4 | 11.3 | 0.00 | 0.00 | 0.00 | 81 | 1015.4 |
| 20260508122003 | 17 | 346 | 6.4 | 11.3 | 0.00 | 0.00 | 0.00 | 81 | 1015.4 |
| 20260508121503 | 17 | 344 | 6.4 | 11.3 | 0.00 | 0.00 | 0.00 | 81 | 1015.3 |
| 20260508121024 | 17 | 344 | 3.2 | 12.9 | 0.00 | 0.00 | 0.00 | 81 | 1015.6 |
| 20260508120503 | 17 | 342 | 6.4 | 12.9 | 0.00 | 0.00 | 0.00 | 82 | 1015.7 |
| 20260508120003 | 17 | 339 | 3.2 | 9.7 | 0.00 | 0.00 | 0.00 | 82 | 1015.5 |
| 20260508115503 | 17 | 338 | 3.2 | 8.0 | 0.00 | 0.00 | 0.00 | 82 | 1015.8 |
| 20260508115003 | 17 | 338 | 3.2 | 9.7 | 0.00 | 0.00 | 0.00 | 81 | 1016.1 |
| 20260508114503 | 17 | 338 | 3.2 | 9.7 | 0.00 | 0.00 | 0.00 | 81 | 1016.1 |
| 20260508114003 | 17 | 338 | 1.6 | 6.4 | 0.00 | 0.00 | 0.00 | 81 | 1016.0 |
| 20260508113503 | 17 | 338 | 1.6 | 6.4 | 0.00 | 0.00 | 0.00 | 81 | 1016.1 |
| 20260508113004 | 17 | 338 | 1.6 | 6.4 | 0.00 | 0.00 | 0.00 | 80 | 1016.1 |
| 20260508112503 | 17 | 338 | 0.0 | 6.4 | 0.00 | 0.00 | 0.00 | 80 | 1016.1 |
| 20260508112003 | 17 | 338 | 1.6 | 6.4 | 0.00 | 0.00 | 0.00 | 80 | 1016.2 |
| 20260508111503 | 17 | 338 | 3.2 | 6.4 | 0.00 | 0.00 | 0.00 | 80 | 1016.1 |
| 20260508111003 | 17 | 338 | 3.2 | 8.0 | 0.00 | 0.00 | 0.00 | 80 | 1016.0 |
| 20260508110524 | 17 | 337 | 6.4 | 11.3 | 0.00 | 0.00 | 0.00 | 80 | 1016.0 |
| 20260508110003 | 17 | 339 | 8.0 | 12.9 | 0.00 | 0.00 | 0.00 | 80 | 1016.0 |
| 20260508105503 | 17 | 342 | 6.4 | 12.9 | 0.00 | 0.00 | 0.00 | 80 | 1015.9 |
| 20260508105004 | 17 | 342 | 6.4 | 12.9 | 0.00 | 0.00 | 0.00 | 80 | 1015.8 |
| 20260508104504 | 17 | 337 | 6.4 | 16.1 | 0.00 | 0.00 | 0.00 | 80 | 1015.9 |
| 20260508104003 | 17 | 334 | 3.2 | 16.1 | 0.00 | 0.00 | 0.00 | 80 | 1015.9 |
| 20260508103503 | 17 | 331 | 3.2 | 11.3 | 0.00 | 0.00 | 0.00 | 80 | 1015.9 |
| 20260508103003 | 17 | 329 | 6.4 | 11.3 | 0.00 | 0.00 | 0.00 | 80 | 1016.0 |
| 20260508102503 | 17 | 329 | 8.0 | 16.1 | 0.00 | 0.00 | 0.00 | 80 | 1015.9 |
| 20260508102003 | 17 | 342 | 8.0 | 16.1 | 0.00 | 0.00 | 0.00 | 80 | 1015.8 |
| 20260508101503 | 17 | 358 | 6.4 | 12.9 | 0.00 | 0.00 | 0.00 | 81 | 1015.6 |
| 20260508101024 | 17 | 10 | 3.2 | 11.3 | 0.00 | 0.00 | 0.00 | 81 | 1015.6 |
| 20260508100503 | 17 | 11 | 3.2 | 8.0 | 0.00 | 0.00 | 0.00 | 81 | 1015.5 |
| 20260508100003 | 17 | 11 | 3.2 | 8.0 | 0.00 | 0.00 | 0.00 | 81 | 1015.7 |
| 20260508095503 | 17 | 2 | 3.2 | 12.9 | 0.00 | 0.00 | 0.00 | 81 | 1016.0 |
| 20260508095003 | 17 | 340 | 3.2 | 12.9 | 0.00 | 0.00 | 0.00 | 81 | 1015.8 |
| 20260508094503 | 17 | 321 | 6.4 | 9.7 | 0.00 | 0.00 | 0.00 | 81 | 1015.7 |
| 20260508094003 | 17 | 321 | 3.2 | 9.7 | 0.00 | 0.00 | 0.00 | 82 | 1015.8 |
| 20260508093503 | 17 | 321 | 1.6 | 8.0 | 0.00 | 0.00 | 0.00 | 82 | 1015.9 |
| 20260508093024 | 17 | 321 | 1.6 | 3.2 | 0.00 | 0.00 | 0.00 | 82 | 1016.0 |
| 20260508092503 | 17 | 321 | 0.0 | 3.2 | 0.00 | 0.00 | 0.00 | 82 | 1016.1 |
| 20260508092003 | 17 | 321 | 0.0 | 3.2 | 0.00 | 0.00 | 0.00 | 81 | 1016.1 |
| 20260508091503 | 17 | 321 | 0.0 | 3.2 | 0.00 | 0.00 | 0.00 | 81 | 1016.1 |
| 20260508091003 | 17 | 321 | 0.0 | 3.2 | 0.00 | 0.00 | 0.00 | 81 | 1016.0 |
| 20260508090503 | 17 | 321 | 0.0 | 3.2 | 0.00 | 0.00 | 0.00 | 80 | 1015.9 |
| 20260508090003 | 17 | 321 | 0.0 | 1.6 | 0.00 | 0.00 | 0.00 | 80 | 1015.8 |
| 20260508085503 | 17 | 321 | 0.0 | 1.6 | 0.00 | 0.00 | 0.00 | 80 | 1015.7 |
| 20260508085024 | 17 | 321 | 0.0 | 1.6 | 0.00 | 0.00 | 0.00 | 80 | 1015.7 |
| 20260508084503 | 17 | 321 | 0.0 | 3.2 | 0.00 | 0.00 | 0.00 | 79 | 1015.8 |
| 20260508084003 | 17 | 321 | 0.0 | 3.2 | 0.00 | 0.00 | 0.00 | 79 | 1015.8 |
| 20260508083525 | 17 | 321 | 1.6 | 6.4 | 0.00 | 0.00 | 0.00 | 79 | 1015.9 |
| 20260508083004 | 17 | 321 | 1.6 | 6.4 | 0.00 | 0.00 | 0.00 | 79 | 1015.9 |
| 20260508082504 | 17 | 321 | 1.6 | 6.4 | 0.00 | 0.00 | 0.00 | 79 | 1015.9 |
| 20260508082004 | 17 | 321 | 1.6 | 6.4 | 0.00 | 0.00 | 0.00 | 79 | 1015.9 |
| 20260508081504 | 17 | 321 | 0.0 | 3.2 | 0.00 | 0.00 | 0.00 | 79 | 1016.1 |
| 20260508081025 | 17 | 321 | 0.0 | 3.2 | 0.00 | 0.00 | 0.00 | 78 | 1015.9 |
| 20260508080504 | 17 | 0 | 0.0 | 0.0 | 0.00 | 0.00 | 0.00 | 78 | 1015.9 |
| 20260508080004 | 17 | 0 | 0.0 | 0.0 | 0.00 | 0.00 | 0.00 | 78 | 1016.1 |
| 20260508075504 | 17 | 321 | 0.0 | 1.6 | 0.00 | 0.00 | 0.00 | 78 | 1016.1 |
| 20260508075004 | 17 | 321 | 0.0 | 1.6 | 0.00 | 0.00 | 0.00 | 77 | 1016.1 |
| 20260508074504 | 17 | 321 | 0.0 | 3.2 | 0.00 | 0.00 | 0.00 | 77 | 1015.9 |
| 20260508074004 | 17 | 321 | 1.6 | 8.0 | 0.00 | 0.00 | 0.00 | 77 | 1016.1 |
| 20260508073525 | 17 | 321 | 3.2 | 8.0 | 0.00 | 0.00 | 0.00 | 77 | 1016.0 |
| 20260508073004 | 17 | 321 | 3.2 | 8.0 | 0.00 | 0.00 | 0.00 | 77 | 1016.0 |
| 20260508072525 | 17 | 321 | 3.2 | 8.0 | 0.00 | 0.00 | 0.00 | 77 | 1016.1 |
| 20260508072004 | 17 | 321 | 3.2 | 8.0 | 0.00 | 0.00 | 0.00 | 77 | 1016.1 |
| 20260508071504 | 17 | 321 | 3.2 | 8.0 | 0.00 | 0.00 | 0.00 | 77 | 1015.8 |
| 20260508071003 | 17 | 321 | 3.2 | 8.0 | 0.00 | 0.00 | 0.00 | 77 | 1015.8 |
| 20260508070525 | 17 | 321 | 6.4 | 8.0 | 0.00 | 0.00 | 0.00 | 77 | 1016.0 |
| 20260508070004 | 17 | 321 | 3.2 | 8.0 | 0.00 | 0.00 | 0.00 | 77 | 1016.0 |
| 20260508065504 | 17 | 321 | 3.2 | 8.0 | 0.00 | 0.00 | 0.00 | 77 | 1015.9 |
| 20260508065004 | 17 | 321 | 3.2 | 9.7 | 0.00 | 0.00 | 0.00 | 77 | 1016.1 |
| 20260508064504 | 17 | 321 | 3.2 | 9.7 | 0.00 | 0.00 | 0.00 | 78 | 1016.3 |
| 20260508064003 | 17 | 320 | 3.2 | 9.7 | 0.00 | 0.00 | 0.00 | 77 | 1016.5 |
| 20260508063504 | 17 | 319 | 3.2 | 9.7 | 0.00 | 0.00 | 0.00 | 78 | 1016.6 |
| 20260508063025 | 17 | 319 | 3.2 | 8.0 | 0.00 | 0.00 | 0.00 | 78 | 1016.7 |
| 20260508062504 | 17 | 319 | 3.2 | 8.0 | 0.00 | 0.00 | 0.00 | 78 | 1016.6 |
| 20260508062004 | 17 | 319 | 1.6 | 6.4 | 0.00 | 0.00 | 0.00 | 78 | 1016.9 |
| 20260508061503 | 17 | 319 | 1.6 | 6.4 | 0.00 | 0.00 | 0.00 | 78 | 1016.8 |
| 20260508061004 | 17 | 319 | 1.6 | 6.4 | 0.00 | 0.00 | 0.00 | 78 | 1016.8 |
| 20260508060504 | 17 | 319 | 1.6 | 6.4 | 0.00 | 0.00 | 0.00 | 78 | 1017.0 |
| 20260508060004 | 17 | 319 | 3.2 | 8.0 | 0.00 | 0.00 | 0.00 | 78 | 1016.9 |
| 20260508055525 | 17 | 319 | 3.2 | 9.7 | 0.00 | 0.00 | 0.00 | 78 | 1016.5 |
| 20260508055003 | 17 | 319 | 3.2 | 9.7 | 0.00 | 0.00 | 0.00 | 78 | 1016.5 |
| 20260508054504 | 17 | 319 | 3.2 | 6.4 | 0.00 | 0.00 | 0.00 | 78 | 1016.6 |
| 20260508054004 | 17 | 319 | 3.2 | 8.0 | 0.00 | 0.00 | 0.00 | 78 | 1016.8 |
| 20260508053503 | 17 | 319 | 3.2 | 8.0 | 0.00 | 0.00 | 0.00 | 78 | 1017.2 |
| 20260508053004 | 17 | 318 | 1.6 | 6.4 | 0.00 | 0.00 | 0.00 | 78 | 1016.9 |
| 20260508052503 | 17 | 318 | 1.6 | 8.0 | 0.00 | 0.00 | 0.00 | 78 | 1016.9 |
| 20260508052004 | 17 | 316 | 3.2 | 11.3 | 0.00 | 0.00 | 0.00 | 78 | 1016.6 |
| 20260508051504 | 17 | 313 | 3.2 | 11.3 | 0.00 | 0.00 | 0.00 | 77 | 1016.7 |
| 20260508051004 | 17 | 311 | 3.2 | 9.7 | 0.00 | 0.00 | 0.00 | 77 | 1016.7 |
| 20260508050504 | 17 | 311 | 3.2 | 9.7 | 0.00 | 0.00 | 0.00 | 77 | 1016.5 |
| 20260508050004 | 17 | 309 | 6.4 | 12.9 | 0.00 | 0.00 | 0.00 | 77 | 1016.5 |
| 20260508045504 | 17 | 301 | 6.4 | 12.9 | 0.00 | 0.00 | 0.00 | 77 | 1017.0 |
| 20260508045003 | 17 | 315 | 6.4 | 12.9 | 0.00 | 0.00 | 0.00 | 77 | 1017.0 |
| 20260508044503 | 17 | 24 | 3.2 | 12.9 | 0.00 | 0.00 | 0.00 | 77 | 1017.2 |
| 20260508044004 | 17 | 62 | 3.2 | 8.0 | 0.00 | 0.00 | 0.00 | 77 | 1016.8 |
| 20260508043504 | 17 | 62 | 3.2 | 8.0 | 0.00 | 0.00 | 0.00 | 76 | 1016.0 |
| 20260508043004 | 17 | 62 | 3.2 | 8.0 | 0.00 | 0.00 | 0.00 | 76 | 1016.3 |
| 20260508042504 | 17 | 62 | 3.2 | 8.0 | 0.00 | 0.00 | 0.00 | 76 | 1016.4 |
| 20260508042004 | 17 | 62 | 1.6 | 6.4 | 0.00 | 0.00 | 0.00 | 76 | 1016.6 |
| 20260508041525 | 17 | 62 | 1.6 | 8.0 | 0.00 | 0.00 | 0.00 | 75 | 1016.7 |
| 20260508041004 | 17 | 62 | 3.2 | 8.0 | 0.00 | 0.00 | 0.00 | 75 | 1016.6 |
| 20260508040504 | 17 | 62 | 3.2 | 8.0 | 0.00 | 0.00 | 0.00 | 75 | 1017.0 |
| 20260508040004 | 17 | 62 | 3.2 | 8.0 | 0.00 | 0.00 | 0.00 | 75 | 1017.1 |
| 20260508035504 | 17 | 62 | 1.6 | 6.4 | 0.00 | 0.00 | 0.00 | 76 | 1017.2 |
| 20260508035004 | 17 | 62 | 1.6 | 6.4 | 0.00 | 0.00 | 0.00 | 76 | 1017.1 |
| 20260508034524 | 17 | 62 | 3.2 | 6.4 | 0.00 | 0.00 | 0.00 | 75 | 1017.3 |
| 20260508034004 | 17 | 62 | 1.6 | 6.4 | 0.00 | 0.00 | 0.00 | 75 | 1017.2 |
| 20260508033504 | 17 | 62 | 0.0 | 3.2 | 0.00 | 0.00 | 0.00 | 75 | 1017.7 |
| 20260508033024 | 17 | 62 | 1.6 | 6.4 | 0.00 | 0.00 | 0.00 | 75 | 1017.8 |
| 20260508032503 | 17 | 62 | 1.6 | 6.4 | 0.00 | 0.00 | 0.00 | 75 | 1017.6 |
| 20260508032024 | 17 | 62 | 1.6 | 6.4 | 0.00 | 0.00 | 0.00 | 75 | 1017.8 |
| 20260508031504 | 17 | 62 | 3.2 | 6.4 | 0.00 | 0.00 | 0.00 | 74 | 1017.7 |
| 20260508031025 | 17 | 62 | 3.2 | 6.4 | 0.00 | 0.00 | 0.00 | 74 | 1017.7 |
| 20260508030524 | 17 | 62 | 3.2 | 6.4 | 0.00 | 0.00 | 0.00 | 74 | 1017.7 |
| 20260508030004 | 17 | 62 | 1.6 | 6.4 | 0.00 | 0.00 | 0.00 | 73 | 1017.4 |
| 20260508025504 | 17 | 62 | 3.2 | 12.9 | 0.00 | 0.00 | 0.00 | 73 | 1017.1 |
| 20260508025004 | 18 | 62 | 6.4 | 12.9 | 0.00 | 0.00 | 0.00 | 72 | 1016.9 |
| 20260508024503 | 18 | 63 | 3.2 | 9.7 | 0.00 | 0.00 | 0.00 | 72 | 1016.9 |
| 20260508024025 | 18 | 64 | 1.6 | 9.7 | 0.00 | 0.00 | 0.00 | 72 | 1016.8 |
| 20260508023503 | 18 | 65 | 3.2 | 9.7 | 0.00 | 0.00 | 0.00 | 72 | 1016.6 |
| 20260508023004 | 18 | 66 | 3.2 | 9.7 | 0.00 | 0.00 | 0.00 | 71 | 1016.3 |
| 20260508022503 | 18 | 69 | 3.2 | 9.7 | 0.00 | 0.00 | 0.00 | 71 | 1015.8 |
| 20260508022024 | 18 | 57 | 3.2 | 19.3 | 0.00 | 0.00 | 0.00 | 70 | 1015.7 |
| 20260508021504 | 18 | 38 | 3.2 | 19.3 | 0.00 | 0.00 | 0.00 | 70 | 1015.7 |
| 20260508021003 | 18 | 46 | 6.4 | 17.7 | 0.00 | 0.00 | 0.00 | 69 | 1015.5 |
| 20260508020525 | 18 | 55 | 6.4 | 17.7 | 0.00 | 0.00 | 0.00 | 69 | 1015.5 |
| 20260508020003 | 18 | 60 | 3.2 | 12.9 | 0.00 | 0.00 | 0.00 | 69 | 1015.3 |
| 20260508015504 | 18 | 76 | 6.4 | 17.7 | 0.00 | 0.00 | 0.00 | 68 | 1015.3 |
| 20260508015004 | 18 | 83 | 6.4 | 17.7 | 0.00 | 0.00 | 0.00 | 68 | 1015.2 |
| 20260508014503 | 18 | 73 | 6.4 | 16.1 | 0.00 | 0.00 | 0.00 | 67 | 1015.1 |
| 20260508014003 | 18 | 59 | 8.0 | 17.7 | 0.00 | 0.00 | 0.00 | 67 | 1015.2 |
| 20260508013504 | 18 | 45 | 8.0 | 17.7 | 0.00 | 0.00 | 0.00 | 66 | 1015.6 |
| 20260508013003 | 18 | 38 | 8.0 | 16.1 | 0.00 | 0.00 | 0.00 | 66 | 1015.6 |
| 20260508012503 | 18 | 39 | 6.4 | 16.1 | 0.00 | 0.00 | 0.00 | 65 | 1015.7 |
| 20260508012024 | 19 | 33 | 6.4 | 11.3 | 0.00 | 0.00 | 0.00 | 65 | 1015.6 |
| 20260508011503 | 19 | 18 | 8.0 | 16.1 | 0.00 | 0.00 | 0.00 | 65 | 1015.9 |
| 20260508011003 | 19 | 6 | 8.0 | 17.7 | 0.00 | 0.00 | 0.00 | 65 | 1016.3 |
| 20260508010503 | 19 | 28 | 8.0 | 17.7 | 0.00 | 0.00 | 0.00 | 65 | 1016.4 |
| 20260508010004 | 19 | 39 | 8.0 | 19.3 | 0.00 | 0.00 | 0.00 | 64 | 1015.1 |
| 20260508005504 | 20 | 39 | 8.0 | 19.3 | 0.00 | 0.00 | 0.00 | 64 | 1015.0 |
| 20260508005003 | 20 | 52 | 9.7 | 19.3 | 0.00 | 0.00 | 0.00 | 64 | 1015.1 |
| 20260508004524 | 20 | 49 | 9.7 | 17.7 | 0.00 | 0.00 | 0.00 | 63 | 1015.4 |
| 20260508004003 | 20 | 34 | 8.0 | 17.7 | 0.00 | 0.00 | 0.00 | 64 | 1015.6 |
| 20260508003503 | 20 | 33 | 6.4 | 16.1 | 0.00 | 0.00 | 0.00 | 64 | 1015.9 |
| 20260508003005 | 20 | 48 | 6.4 | 12.9 | 0.00 | 0.00 | 0.00 | 63 | 1016.2 |
| 20260508002503 | 20 | 40 | 3.2 | 12.9 | 0.00 | 0.00 | 0.00 | 62 | 1016.1 |
| 20260508002003 | 20 | 12 | 3.2 | 9.7 | 0.00 | 0.00 | 0.00 | 62 | 1016.1 |
| 20260508001503 | 21 | 11 | 3.2 | 9.7 | 0.00 | 0.00 | 0.00 | 63 | 1016.3 |
| 20260508001004 | 21 | 9 | 6.4 | 9.7 | 0.00 | 0.00 | 0.00 | 63 | 1016.5 |
| 20260508000503 | 21 | 5 | 6.4 | 9.7 | 0.00 | 0.00 | 0.00 | 62 | 1016.6 |
| 20260508000024 | 21 | 5 | 6.4 | 9.7 | 0.00 | 0.00 | 0.00 | 62 | 1016.5 |
| 20260507235503 | 21 | 30 | 6.4 | 11.3 | 0.00 | 0.00 | 0.00 | 61 | 1017.0 |
| 20260507235003 | 21 | 92 | 3.2 | 11.3 | 0.00 | 0.00 | 0.00 | 61 | 1016.8 |
| 20260507234503 | 21 | 73 | 3.2 | 12.9 | 0.00 | 0.00 | 0.00 | 60 | 1016.9 |
| 20260507234003 | 21 | 21 | 6.4 | 12.9 | 0.00 | 0.00 | 0.00 | 62 | 1016.8 |
| 20260507233524 | 21 | 5 | 8.0 | 12.9 | 0.00 | 0.00 | 0.00 | 60 | 1017.0 |
| 20260507233024 | 21 | 2 | 9.7 | 16.1 | 0.00 | 0.00 | 0.00 | 61 | 1017.1 |
| 20260507232503 | 21 | 29 | 8.0 | 16.1 | 0.00 | 0.00 | 0.00 | 60 | 1017.1 |
| 20260507232003 | 21 | 66 | 6.4 | 16.1 | 0.00 | 0.00 | 0.00 | 61 | 1016.8 |
| 20260507231503 | 21 | 64 | 6.4 | 16.1 | 0.00 | 0.00 | 0.00 | 60 | 1016.8 |
| 20260507231024 | 21 | 33 | 3.2 | 12.9 | 0.00 | 0.00 | 0.00 | 61 | 1016.7 |
| 20260507230524 | 21 | 13 | 6.4 | 12.9 | 0.00 | 0.00 | 0.00 | 62 | 1016.8 |
| 20260507230024 | 21 | 14 | 8.0 | 16.1 | 0.00 | 0.00 | 0.00 | 61 | 1017.1 |
| 20260507225503 | 21 | 17 | 8.0 | 17.7 | 0.00 | 0.00 | 0.00 | 61 | 1017.0 |
| 20260507225003 | 21 | 12 | 8.0 | 17.7 | 0.00 | 0.00 | 0.00 | 63 | 1017.2 |
| 20260507224504 | 20 | 8 | 8.0 | 16.1 | 0.00 | 0.00 | 0.00 | 64 | 1017.1 |
| 20260507224004 | 20 | 4 | 6.4 | 11.3 | 0.00 | 0.00 | 0.00 | 64 | 1017.4 |
| 20260507223503 | 20 | 20 | 6.4 | 16.1 | 0.00 | 0.00 | 0.00 | 64 | 1017.3 |
| 20260507223003 | 20 | 42 | 6.4 | 16.1 | 0.00 | 0.00 | 0.00 | 64 | 1017.3 |
| 20260507222503 | 20 | 16 | 6.4 | 12.9 | 0.00 | 0.00 | 0.00 | 62 | 1017.4 |
| 20260507222003 | 20 | 10 | 8.0 | 16.1 | 0.00 | 0.00 | 0.00 | 63 | 1017.6 |
| 20260507221524 | 20 | 15 | 6.4 | 17.7 | 0.00 | 0.00 | 0.00 | 63 | 1017.5 |
| 20260507221003 | 20 | 360 | 8.0 | 17.7 | 0.00 | 0.00 | 0.00 | 63 | 1017.6 |
| 20260507220524 | 20 | 349 | 9.7 | 17.7 | 0.00 | 0.00 | 0.00 | 63 | 1017.7 |
| 20260507220003 | 20 | 354 | 8.0 | 17.7 | 0.00 | 0.00 | 0.00 | 63 | 1017.5 |
| 20260507215524 | 20 | 356 | 8.0 | 12.9 | 0.00 | 0.00 | 0.00 | 64 | 1017.6 |
| 20260507215003 | 20 | 5 | 8.0 | 16.1 | 0.00 | 0.00 | 0.00 | 64 | 1017.5 |
| 20260507214503 | 20 | 16 | 8.0 | 16.1 | 0.00 | 0.00 | 0.00 | 63 | 1017.5 |
| 20260507214003 | 20 | 20 | 8.0 | 17.7 | 0.00 | 0.00 | 0.00 | 64 | 1017.5 |
| 20260507213503 | 20 | 8 | 9.7 | 19.3 | 0.00 | 0.00 | 0.00 | 63 | 1017.6 |
| 20260507213003 | 20 | 2 | 11.3 | 19.3 | 0.00 | 0.00 | 0.00 | 64 | 1017.5 |
| 20260507212503 | 20 | 12 | 9.7 | 19.3 | 0.00 | 0.00 | 0.00 | 63 | 1017.5 |
| 20260507212003 | 20 | 11 | 8.0 | 17.7 | 0.00 | 0.00 | 0.00 | 63 | 1017.4 |
| 20260507211503 | 20 | 19 | 9.7 | 19.3 | 0.00 | 0.00 | 0.00 | 63 | 1017.4 |
| 20260507211003 | 20 | 11 | 11.3 | 20.9 | 0.00 | 0.00 | 0.00 | 63 | 1017.7 |
| 20260507210503 | 20 | 4 | 12.9 | 27.4 | 0.00 | 0.00 | 0.00 | 63 | 1017.7 |
| 20260507210003 | 20 | 13 | 12.9 | 27.4 | 0.00 | 0.00 | 0.00 | 64 | 1017.7 |
| 20260507205503 | 20 | 8 | 12.9 | 27.4 | 0.00 | 0.00 | 0.00 | 63 | 1017.4 |
| 20260507205003 | 20 | 356 | 17.7 | 30.6 | 0.00 | 0.00 | 0.00 | 63 | 1017.3 |
| 20260507204503 | 20 | 350 | 16.1 | 30.6 | 0.00 | 0.00 | 0.00 | 63 | 1017.1 |
| 20260507204003 | 20 | 352 | 16.1 | 30.6 | 0.00 | 0.00 | 0.00 | 64 | 1017.3 |
| 20260507203503 | 20 | 350 | 12.9 | 29.0 | 0.00 | 0.00 | 0.00 | 65 | 1017.3 |
| 20260507203004 | 20 | 346 | 12.9 | 27.4 | 0.00 | 0.00 | 0.00 | 65 | 1017.4 |
| 20260507202504 | 20 | 356 | 12.9 | 27.4 | 0.00 | 0.00 | 0.00 | 64 | 1017.9 |
| 20260507202004 | 20 | 10 | 11.3 | 27.4 | 0.00 | 0.00 | 0.00 | 64 | 1017.9 |
| 20260507201504 | 20 | 11 | 12.9 | 38.6 | 0.00 | 0.00 | 0.00 | 64 | 1018.0 |
| 20260507201004 | 20 | 360 | 12.9 | 38.6 | 0.00 | 0.00 | 0.00 | 62 | 1018.1 |
| 20260507200504 | 20 | 358 | 11.3 | 29.0 | 0.00 | 0.00 | 0.00 | 65 | 1018.2 |
| 20260507200025 | 20 | 3 | 12.9 | 29.0 | 0.00 | 0.00 | 0.00 | 65 | 1017.9 |
| 20260507195504 | 20 | 4 | 12.9 | 30.6 | 0.00 | 0.00 | 0.00 | 66 | 1017.9 |
| 20260507195003 | 20 | 6 | 16.1 | 30.6 | 0.00 | 0.00 | 0.00 | 67 | 1018.0 |
| 20260507194504 | 20 | 358 | 16.1 | 37.0 | 0.00 | 0.00 | 0.00 | 67 | 1017.8 |
| 20260507194004 | 20 | 357 | 11.3 | 37.0 | 0.00 | 0.00 | 0.00 | 70 | 1018.2 |
| 20260507193504 | 19 | 3 | 9.7 | 20.9 | 0.00 | 0.00 | 0.00 | 71 | 1018.3 |
| 20260507193025 | 19 | 353 | 12.9 | 20.9 | 0.00 | 0.00 | 0.00 | 70 | 1018.2 |
| 20260507192504 | 19 | 354 | 12.9 | 22.5 | 0.00 | 0.00 | 0.00 | 71 | 1018.6 |
| 20260507192004 | 19 | 12 | 9.7 | 22.5 | 0.00 | 0.00 | 0.00 | 73 | 1018.3 |
| 20260507191504 | 18 | 17 | 8.0 | 17.7 | 0.00 | 0.00 | 0.00 | 74 | 1018.3 |
| 20260507191004 | 18 | 14 | 9.7 | 16.1 | 0.00 | 0.00 | 0.00 | 72 | 1018.6 |
| 20260507190504 | 18 | 12 | 8.0 | 16.1 | 0.00 | 0.00 | 0.00 | 71 | 1018.7 |